Location: Beetenbrück
(52.8113°N, 9.5946°E)
Time: 22:13:10
(UTC+00:00)

USA 59 Rocket - Pass Details

Date: 14 April 2026
Orbit: 367 x 1664 km, 63.3° (Epoch: 12 May)

Event Time Altitude Azimuth Distance (km) Brightness Sun altitude
Rises 20:19:05 0° 312° (NW) 2,287 4.8 -16.4°
Reaches altitude 10° 20:20:56 10° 312° (NW) 1,490 3.4 -16.6°
Maximum altitude 20:24:08 86° 225° (SW) 481 -0.6 -17.0°
Enters shadow 20:25:21 41° 138° (SE) 740 0.0 -17.1°
